When you browse on this site, cookies collect data to enhance your experience and personalize the content and advertising you see.
Visit our Privacy Policy to learn more. By continuing to use the site, you agree to this use of cookies and data.
  • En España
  • Lista de países
  • Para 7 días
  • Temperatura del agua
  • El tiempo en el mapa
  • Informadores
  • user-avatar
    Iniciar sesión

    Tiempo cada hora Trostyanec

    Hoy, 5 Junio, Viernes

    Tiempo Temperatura Precipitaciones Viento Presión Humedad
    00:00 +11°C° 0 mm 4 mps 746 mmHg 89%
    01:00 +11°C° 0 mm 4 mps 746 mmHg 90%
    02:00 +10°C° 0 mm 4 mps 746 mmHg 92%
    03:00 +10°C° 0 mm 5 mps 746 mmHg 91%
    04:00 +10°C° 0 mm 5 mps 746 mmHg 91%
    05:00 +10°C° 0 mm 6 mps 746 mmHg 90%
    06:00 +11°C° 0.6 mm 6 mps 746 mmHg 91%
    07:00 +11°C° 0.6 mm 6 mps 746 mmHg 92%
    08:00 +11°C° 0 mm 7 mps 746 mmHg 93%
    09:00 +12°C° 0.8 mm 7 mps 746 mmHg 93%
    10:00 +14°C° 0.8 mm 6 mps 746 mmHg 93%
    11:00 +14°C° 0.8 mm 6 mps 747 mmHg 93%
    12:00 +15°C° 0.3 mm 7 mps 746 mmHg 92%
    13:00 +16°C° 0.3 mm 7 mps 746 mmHg 91%
    14:00 +16°C° 0.3 mm 7 mps 746 mmHg 91%
    15:00 +17°C° 0.3 mm 6 mps 747 mmHg 89%
    16:00 +19°C° 0.3 mm 5 mps 747 mmHg 87%
    17:00 +20°C° 0.3 mm 4 mps 747 mmHg 86%
    18:00 +19°C° 0.7 mm 4 mps 747 mmHg 87%
    19:00 +18°C° 0.7 mm 4 mps 747 mmHg 89%
    20:00 +17°C° 0.7 mm 3 mps 747 mmHg 91%
    21:00 +17°C° 0.1 mm 4 mps 747 mmHg 91%
    22:00 +17°C° 0.1 mm 4 mps 748 mmHg 92%
    23:00 +15°C° 0.1 mm 4 mps 748 mmHg 93%

    Mañana, 6 Junio, Sábado

    Tiempo Temperatura Precipitaciones Viento Presión Humedad
    00:00 +15°C° 0 mm 4 mps 748 mmHg 93%
    01:00 +15°C° 0 mm 4 mps 748 mmHg 93%
    02:00 +14°C° 0 mm 4 mps 748 mmHg 93%
    03:00 +14°C° 0 mm 4 mps 749 mmHg 93%
    04:00 +14°C° 0 mm 4 mps 749 mmHg 93%
    05:00 +14°C° 0 mm 4 mps 749 mmHg 93%
    06:00 +15°C° 0 mm 4 mps 749 mmHg 91%
    07:00 +16°C° 0 mm 5 mps 749 mmHg 88%
    08:00 +19°C° 0 mm 5 mps 750 mmHg 86%
    09:00 +20°C° 0 mm 5 mps 750 mmHg 84%
    10:00 +22°C° 0 mm 5 mps 750 mmHg 81%
    11:00 +23°C° 0 mm 5 mps 750 mmHg 79%
    12:00 +25°C° 0.7 mm 5 mps 750 mmHg 78%
    13:00 +24°C° 0.7 mm 6 mps 750 mmHg 77%
    14:00 +26°C° 0.7 mm 6 mps 750 mmHg 76%
    15:00 +26°C° 0.1 mm 5 mps 750 mmHg 77%
    16:00 +26°C° 0.1 mm 4 mps 750 mmHg 78%
    17:00 +25°C° 0.1 mm 3 mps 750 mmHg 79%
    18:00 +24°C° 0 mm 3 mps 750 mmHg 81%
    19:00 +21°C° 0 mm 3 mps 750 mmHg 84%
    20:00 +20°C° 0 mm 2 mps 751 mmHg 87%
    21:00 +19°C° 0 mm 2 mps 751 mmHg 87%
    22:00 +19°C° 0 mm 2 mps 751 mmHg 87%
    23:00 +18°C° 0 mm 2 mps 751 mmHg 87%

    Pasado mañana, 7 Junio, Domingo

    Tiempo Temperatura Precipitaciones Viento Presión Humedad
    00:00 +17°C° 0 mm 3 mps 751 mmHg 87%
    01:00 +17°C° 0 mm 3 mps 752 mmHg 87%
    02:00 +16°C° 0 mm 3 mps 752 mmHg 87%
    03:00 +17°C° 0 mm 3 mps 752 mmHg 88%
    04:00 +17°C° 0 mm 2 mps 752 mmHg 89%
    05:00 +17°C° 0 mm 2 mps 752 mmHg 90%
    06:00 +19°C° 0 mm 2 mps 752 mmHg 85%
    07:00 +20°C° 0 mm 2 mps 752 mmHg 80%
    08:00 +23°C° 0 mm 2 mps 753 mmHg 75%
    09:00 +24°C° 0 mm 2 mps 753 mmHg 72%
    10:00 +25°C° 0 mm 3 mps 753 mmHg 69%
    11:00 +26°C° 0 mm 3 mps 753 mmHg 66%
    12:00 +27°C° 0 mm 3 mps 753 mmHg 65%
    13:00 +27°C° 0 mm 3 mps 752 mmHg 64%
    14:00 +27°C° 0 mm 3 mps 752 mmHg 63%
    15:00 +27°C° 0 mm 3 mps 752 mmHg 65%
    16:00 +27°C° 0 mm 2 mps 752 mmHg 68%
    17:00 +27°C° 0 mm 2 mps 752 mmHg 70%
    18:00 +25°C° 0 mm 2 mps 752 mmHg 72%
    19:00 +23°C° 0 mm 2 mps 752 mmHg 73%
    20:00 +20°C° 0 mm 2 mps 752 mmHg 74%
    21:00 +19°C° 0 mm 2 mps 752 mmHg 75%
    22:00 +19°C° 0 mm 2 mps 752 mmHg 76%
    23:00 +18°C° 0 mm 2 mps 752 mmHg 77%

    8 Junio, Lunes

    Tiempo Temperatura Precipitaciones Viento Presión Humedad
    00:00 +18°C° 0 mm 2 mps 752 mmHg 78%
    01:00 +18°C° 0 mm 2 mps 752 mmHg 79%
    02:00 +17°C° 0 mm 2 mps 752 mmHg 80%
    03:00 +18°C° 0 mm 2 mps 752 mmHg 82%
    04:00 +18°C° 0 mm 2 mps 752 mmHg 84%
    05:00 +18°C° 0 mm 2 mps 752 mmHg 85%
    06:00 +20°C° 0 mm 2 mps 752 mmHg 83%
    07:00 +21°C° 0 mm 2 mps 752 mmHg 81%
    08:00 +24°C° 0 mm 3 mps 752 mmHg 78%
    09:00 +25°C° 0 mm 3 mps 752 mmHg 74%
    10:00 +26°C° 0 mm 3 mps 752 mmHg 70%
    11:00 +27°C° 0 mm 3 mps 752 mmHg 65%
    12:00 +28°C° 0 mm 3 mps 751 mmHg 65%
    13:00 +28°C° 0 mm 3 mps 751 mmHg 64%
    14:00 +28°C° 0 mm 3 mps 751 mmHg 63%
    15:00 +28°C° 0 mm 3 mps 750 mmHg 66%
    16:00 +28°C° 0 mm 2 mps 750 mmHg 70%
    17:00 +28°C° 0 mm 2 mps 750 mmHg 73%
    18:00 +26°C° 0 mm 2 mps 750 mmHg 76%
    19:00 +24°C° 0 mm 2 mps 750 mmHg 79%
    20:00 +21°C° 0 mm 2 mps 750 mmHg 82%
    21:00 +21°C° 0 mm 2 mps 750 mmHg 83%
    22:00 +20°C° 0 mm 2 mps 750 mmHg 84%
    23:00 +19°C° 0 mm 2 mps 750 mmHg 85%

    9 Junio, Martes

    Tiempo Temperatura Precipitaciones Viento Presión Humedad
    00:00 +19°C° 0 mm 2 mps 750 mmHg 86%
    01:00 +19°C° 0 mm 2 mps 750 mmHg 87%
    02:00 +18°C° 0 mm 2 mps 750 mmHg 88%
    03:00 +19°C° 0 mm 2 mps 750 mmHg 88%
    04:00 +19°C° 0 mm 2 mps 750 mmHg 88%
    05:00 +19°C° 0 mm 2 mps 750 mmHg 88%
    06:00 +21°C° 0 mm 3 mps 750 mmHg 85%
    07:00 +22°C° 0 mm 3 mps 751 mmHg 82%
    08:00 +25°C° 0 mm 3 mps 751 mmHg 78%
    09:00 +26°C° 0 mm 3 mps 751 mmHg 74%
    10:00 +27°C° 0 mm 3 mps 751 mmHg 69%
    11:00 +29°C° 0 mm 3 mps 751 mmHg 65%
    12:00 +29°C° 0 mm 3 mps 751 mmHg 63%
    13:00 +29°C° 0 mm 3 mps 751 mmHg 62%
    14:00 +30°C° 0 mm 3 mps 750 mmHg 61%
    15:00 +29°C° 0.1 mm 2 mps 750 mmHg 65%
    16:00 +29°C° 0.1 mm 2 mps 750 mmHg 68%
    17:00 +29°C° 0.1 mm 2 mps 750 mmHg 72%
    18:00 +27°C° 0 mm 2 mps 750 mmHg 76%
    19:00 +25°C° 0 mm 2 mps 750 mmHg 79%
    20:00 +24°C° 0 mm 3 mps 750 mmHg 82%
    21:00 +22°C° 0 mm 3 mps 750 mmHg 85%
    22:00 +21°C° 0 mm 3 mps 750 mmHg 87%
    23:00 +21°C° 0 mm 3 mps 751 mmHg 90%

    10 Junio, Miércoles

    Tiempo Temperatura Precipitaciones Viento Presión Humedad
    00:00 +20°C° 0 mm 3 mps 750 mmHg 90%
    01:00 +20°C° 0 mm 3 mps 750 mmHg 91%
    02:00 +19°C° 0 mm 3 mps 750 mmHg 91%
    03:00 +20°C° 0 mm 3 mps 750 mmHg 91%
    04:00 +20°C° 0 mm 3 mps 751 mmHg 91%
    05:00 +20°C° 0 mm 3 mps 751 mmHg 91%
    06:00 +22°C° 0 mm 3 mps 751 mmHg 87%
    07:00 +24°C° 0 mm 3 mps 751 mmHg 83%
    08:00 +26°C° 0 mm 3 mps 751 mmHg 79%
    09:00 +27°C° 0.3 mm 3 mps 751 mmHg 72%
    10:00 +29°C° 0.3 mm 4 mps 751 mmHg 66%
    11:00 +30°C° 0.3 mm 4 mps 751 mmHg 60%
    12:00 +30°C° 0 mm 4 mps 751 mmHg 60%
    13:00 +30°C° 0 mm 4 mps 751 mmHg 60%
    14:00 +30°C° 0 mm 4 mps 751 mmHg 61%
    15:00 +30°C° 0.1 mm 4 mps 750 mmHg 65%
    16:00 +30°C° 0.1 mm 3 mps 750 mmHg 69%
    17:00 +30°C° 0.1 mm 2 mps 750 mmHg 73%
    18:00 +28°C° 0.1 mm 3 mps 750 mmHg 76%
    19:00 +26°C° 0.1 mm 3 mps 750 mmHg 79%
    20:00 +24°C° 0.1 mm 3 mps 751 mmHg 82%
    21:00 +22°C° 0 mm 3 mps 751 mmHg 82%
    22:00 +22°C° 0 mm 3 mps 751 mmHg 83%
    23:00 +21°C° 0 mm 3 mps 751 mmHg 84%
    Mostrar más